Weather in Chagorta

Russia / Republic of Kalmykia     46°43′38″N   43°58′09″E
temp.,
°C
wind,
m/s
gust,
m/s
humid.,
%
clouds,
%
prec.,
mm/h
press.,
hPa
HPBL,
m
10 april, sat
sat1000:00+4nw71088100 0.0 1017435
03:00+4nw6990100 0.0 1017421
06:00+4nnw6989100 0.0 1017455
09:00+6nnw6785100 0.0 1017519
12:00+10nw4574100 0.0 1018764
15:00+13nw446795 0.0 1017949
18:00+12wnw3470100 0.0 1017201
21:00+10wnw4681100 0.0 1018186
11 april, sun
sun1100:00+9n2385100 0.0 101858
03:00+8nne339133 0.0 101942
06:00+7ne229288 0.0 101931
09:00+12ne227474 0.0 1019502
12:00+16e345982 0.0 10181070
15:00+19ese574990 0.0 10181206
18:00+17ese2258100 0.0 101818
21:00+16ese6145134 0.0 1017289
12 april, mon
mon1200:00+13e51355100 0.0 1017243
03:00+12e71455100 0.0 1017294
06:00+13e81751100 0.0 1017473
09:00+16ese9154893 0.0 1019763
12:00+19ese101341100 0.0 10191219
15:00+19ese91244100 0.0 10191157
18:00+16ese71354100 0.1 1021693
21:00+15ese61354100 0.1 1021515
13 april, tue
tue1300:00+14e51156100 0.0 1021304
03:00+11e486638 0.0 1021149
06:00+11e356721 0.0 102181
09:00+15ese61153100 0.2 1021606
12:00+18se9135967 0.2 10201415
15:00+18se81256100 1.0 10201296
18:00+17se4759100 0.1 1020137
21:00+13sse1368100 0.2 102136
14 april, wed
wed1400:00+12ese476883 0.7 1020159
03:00+10e4657100 0.7 101995
06:00+10ene4853100 0.0 1019145
09:00+15e6940100 0.0 1018438
12:00+19ese683284 0.0 1017852
15:00+22se682435 0.0 10161990
18:00+18sse2239100 0.0 101619
21:00+14w4451100 0.0 101750